Weather History for Air Force Academy, CO

Change the Weather History Date:

Tuesday, March 26, 2013

  Actual Average Record
Temperature  
Mean Temperature 28 °F -  
Max Temperature 50 °F 51 °F 72 °F (2012)
Min Temperature 9 °F 27 °F 9 °F (2013)
Degree Days  
Heating Degree Days 36    
Moisture  
Dew Point 13 °F    
Average Humidity 55    
Maximum Humidity 83    
Minimum Humidity 24    
Precipitation  
Precipitation 0.00 in - - ()
Sea Level Pressure  
Sea Level Pressure 30.13 in    
Wind  
Wind Speed 7 mph (NE)    
Max Wind Speed 14 mph    
Max Gust Speed -    
Visibility 10 miles    
Events      
Averages and records for this station are not official NWS values.
T = Trace of Precipitation, MM = Missing Value Source: NWS Daily Summary

Daily Weather History Graph

Daily Weather History Graph

Search for Another Location

Airport:

Trip Planner

Search our weather history database for the weather conditions in past years. The results will help you decide how hot, cold, wet, or windy it might be!

Date:

Astronomy

Mar. 26, 2013 Rise Set
Actual Time 6:52 AM MDT 7:17 PM MDT
Civil Twilight 6:26 AM MDT 7:44 PM MDT
Nautical Twilight 5:54 AM MDT 8:15 PM MDT
Astronomical Twilight 5:22 AM MDT 8:47 PM MDT
Moon 6:56 PM MDT (3/26) 6:10 AM MDT (3/26)
Length of Visible Light 13h 18m
Length of Day
12h 24m
Waxing Gibbous, 99% of the Moon is Illuminated
Mar 26
Waxing Gibbous
Mar 27
Full
Apr 2
Last Quarter
Apr 10
New
Apr 18
First Quarter

Hourly Weather History & Observations

Time (MDT) Temp. Windchill Dew Point Humidity Pressure Visibility Wind Dir Wind Speed Gust Speed Precip Events Conditions
12:58 AM 14.4 °F - 8.8 °F 79% 30.32 in 10.0 mi North 2.3 mph - N/A   Clear
1:58 AM 11.1 °F 4.9 °F 6.3 °F 81% 30.34 in 10.0 mi NNW 3.5 mph - N/A   Clear
2:58 AM 9.7 °F 1.4 °F 5.5 °F 83% 30.30 in 10.0 mi North 4.6 mph - N/A   Clear
3:58 AM 9.3 °F -2.8 °F 5.2 °F 83% 30.28 in 10.0 mi North 8.1 mph - N/A   Clear
4:58 AM 9.1 °F -1.9 °F 4.8 °F 83% 30.26 in 10.0 mi North 6.9 mph - N/A   Clear
5:58 AM 10.9 °F 0.2 °F 6.3 °F 81% 30.25 in 10.0 mi North 6.9 mph - N/A   Clear
6:58 AM 13.1 °F 1.8 °F 7.5 °F 78% 30.24 in 10.0 mi North 8.1 mph - N/A   Clear
7:58 AM 18.1 °F 8.9 °F 11.3 °F 75% 30.23 in 10.0 mi North 6.9 mph - N/A   Clear
8:58 AM 22.3 °F 13.9 °F 13.6 °F 69% 30.19 in 10.0 mi North 6.9 mph - N/A   Clear
9:58 AM 33.3 °F - 10.2 °F 38% 30.14 in 10.0 mi NNE 1.2 mph - N/A   Clear
10:58 AM 42.3 °F 36.8 °F 11.3 °F 28% 30.09 in 10.0 mi South 9.2 mph - N/A   Clear
11:58 AM 44.2 °F 38.0 °F 10.4 °F 25% 30.07 in 10.0 mi South 12.7 mph - N/A   Clear
12:58 PM 47.3 °F - 12.0 °F 24% 30.04 in 10.0 mi SSE 8.1 mph - N/A   Clear
1:58 PM 48.7 °F - 14.5 °F 26% 30.04 in 10.0 mi SSE 12.7 mph - N/A   Clear
2:58 PM 47.7 °F - 17.6 °F 30% 30.02 in 10.0 mi SSE 10.4 mph - N/A   Clear
3:58 PM 47.5 °F - 18.5 °F 32% 30.02 in 10.0 mi SE 12.7 mph - N/A   Partly Cloudy
4:58 PM 48.0 °F - 17.2 °F 29% 30.01 in 10.0 mi SE 13.8 mph - N/A   Clear
5:58 PM 47.1 °F - 16.5 °F 29% 30.01 in 10.0 mi SSE 10.4 mph - N/A   Clear
6:58 PM 45.3 °F 41.1 °F 19.2 °F 35% 30.02 in 10.0 mi SE 8.1 mph - N/A   Clear
7:58 PM 40.8 °F 37.8 °F 19.0 °F 42% 30.02 in 10.0 mi South 4.6 mph - N/A   Clear
8:58 PM 34.3 °F 29.2 °F 20.7 °F 57% 30.07 in 10.0 mi ENE 5.8 mph - N/A   Clear
9:58 PM 30.0 °F 24.1 °F 19.9 °F 66% 30.06 in 10.0 mi North 5.8 mph - N/A   Clear
10:58 PM 27.1 °F 18.2 °F 20.3 °F 75% 30.02 in 10.0 mi NNW 9.2 mph - N/A   Clear
11:58 PM 29.3 °F 19.6 °F 22.1 °F 75% 29.99 in 10.0 mi North 11.5 mph - N/A   Clear